Location: Baia Mare
(47.6567°N, 23.5850°E)
Time: 20:24:44
(UTC+02:00)

ISS - Pass Details

Date: 28 February 2020
Orbit: 417 x 420 km, 51.6° (Epoch: 28 October)

Event Time Altitude Azimuth Distance (km) Brightness Sun altitude
Exits shadow 06:15:36 15° 271° (W) 1,267 -2.0 -9.9°
Maximum altitude 06:18:18 51° 346° (NNW) 541 -3.3 -9.4°
Drops below altitude 10° 06:21:39 10° 64° (ENE) 1,521 0.2 -8.8°
Sets 06:23:47 0° 70° (ENE) 2,388 1.5 -8.5°
